Jacksonville, NC

11:23 PM EST on November 17, 2019 (GMT -0500)
Ellis

Weather History for KOAJ - August, 2019

Change the Weather History Date:

Saturday, August 17, 2019

  Actual Average Record
Temperature  
Mean Temperature 77 °F -  
Max Temperature 82 °F 86 °F 96 °F (2010)
Min Temperature 72 °F 66 °F 62 °F (2004)
Cooling Degree Days 12    
Growing Degree Days 27 (Base 50)    
Moisture  
Dew Point 75 °F    
Average Humidity 94    
Maximum Humidity 100    
Minimum Humidity 79    
Precipitation  
Precipitation 0.28 in - - ()
Sea Level Pressure  
Sea Level Pressure 30.02 in    
Wind  
Wind Speed 4 mph (South)    
Max Wind Speed 10 mph    
Max Gust Speed -    
Visibility 8 miles    
Events Rain , Thunderstorm    
Averages and records for this station are not official NWS values.
T = Trace of Precipitation, MM = Missing Value Source: NWS Daily Summary

Daily Weather History Graph

Daily Weather History Graph

Search for Another Location

Airport or City:

Astronomy

Aug. 17, 2019 Rise Set
Actual Time 6:32 AM EDT 7:56 PM EDT
Civil Twilight 6:05 AM EDT 8:23 PM EDT
Nautical Twilight 5:33 AM EDT 8:54 PM EDT
Astronomical Twilight 5:00 AM EDT 9:28 PM EDT
Moon 9:27 PM EDT (8/17) 8:16 AM EDT (8/17)
Length of Visible Light 14h 17m
Length of Day
13h 24m
Waning Gibbous, 96% of the Moon is Illuminated
Aug 17
Waning Gibbous
Aug 23
Last Quarter
Aug 30
New
Sep 5
First Quarter
Sep 14
Full

Hourly Weather History & Observations

Time (EDT) Temp. Heat Index Dew Point Humidity Pressure Visibility Wind Dir Wind Speed Gust Speed Precip Events Conditions
12:56 AM 75.0 °F - 73.9 °F 96% 29.99 in 10.0 mi WSW 3.5 mph - N/A   Overcast
1:19 AM 75.2 °F - 73.4 °F 94% 29.98 in 6.0 mi SW 4.6 mph - N/A   Overcast
1:28 AM 75.2 °F - 73.4 °F 94% 29.99 in 2.5 mi SW 6.9 mph - N/A   Overcast
1:40 AM 75.2 °F - 73.4 °F 94% 29.99 in 4.0 mi WSW 9.2 mph - N/A   Overcast
1:56 AM 75.0 °F - 73.9 °F 96% 30.01 in 10.0 mi SW 8.1 mph - N/A   Overcast
2:15 AM 73.4 °F - 73.4 °F 100% 30.00 in 10.0 mi SW 6.9 mph - N/A   Overcast
2:56 AM 73.9 °F - 73.0 °F 97% 30.01 in 10.0 mi WSW 3.5 mph - N/A   Mostly Cloudy
3:56 AM 73.9 °F - 73.0 °F 97% 30.01 in 10.0 mi Calm Calm - N/A   Overcast
4:36 AM 73.4 °F - 71.6 °F 94% 30.01 in 10.0 mi SSW 3.5 mph - 0.00 in   Mostly Cloudy
4:56 AM 73.0 °F - 72.0 °F 96% 30.01 in 8.0 mi Calm Calm - 0.00 in   Partly Cloudy
5:56 AM 72.0 °F - 72.0 °F 100% 30.00 in 5.0 mi Calm Calm - N/A   Mostly Cloudy
6:32 AM 73.4 °F - 71.6 °F 94% 30.01 in 4.0 mi Calm Calm - N/A   Mostly Cloudy
6:56 AM 73.0 °F - 72.0 °F 96% 30.02 in 2.5 mi Calm Calm - N/A   Mostly Cloudy
7:09 AM 73.4 °F - 71.6 °F 94% 30.01 in 5.0 mi Calm Calm - 0.00 in Rain Light Rain
7:56 AM 73.0 °F - 72.0 °F 96% 30.02 in 5.0 mi Calm Calm - 0.00 in   Mostly Cloudy
8:56 AM 78.1 °F - 75.0 °F 90% 30.04 in 10.0 mi Calm Calm - N/A   Overcast
9:22 AM 78.8 °F - 75.2 °F 89% 30.03 in 10.0 mi Calm Calm - N/A   Mostly Cloudy
9:56 AM 80.1 °F 85.4 °F 75.9 °F 87% 30.04 in 10.0 mi South 3.5 mph - N/A   Mostly Cloudy
10:10 AM 80.6 °F 87.1 °F 77.0 °F 89% 30.03 in 10.0 mi SSW 5.8 mph - N/A   Mostly Cloudy
10:34 AM 80.6 °F 86.2 °F 75.2 °F 84% 30.04 in 10.0 mi SSW 10.4 mph - 0.00 in Rain Light Rain
10:53 AM 78.8 °F - 75.2 °F 89% 30.04 in 5.0 mi SW 4.6 mph - 0.06 in Rain Heavy Rain
10:56 AM 78.1 °F - 75.9 °F 93% 30.05 in 5.0 mi SW 4.6 mph - 0.07 in Rain Rain
11:56 AM 80.1 °F 85.8 °F 77.0 °F 90% 30.05 in 10.0 mi SSW 6.9 mph - 0.01 in   Mostly Cloudy
12:56 PM 80.1 °F 85.8 °F 77.0 °F 90% 30.05 in 10.0 mi South 5.8 mph - 0.00 in Rain Light Rain
12:59 PM 80.6 °F 88.1 °F 78.8 °F 94% 30.04 in 10.0 mi South 6.9 mph - 0.00 in   Overcast
1:51 PM 82.4 °F 90.9 °F 77.0 °F 84% 30.04 in 10.0 mi SSE 6.9 mph - 0.00 in   Overcast
1:56 PM 82.0 °F 90.2 °F 77.0 °F 85% 30.05 in 10.0 mi SSE 6.9 mph - 0.00 in   Overcast
2:20 PM 82.4 °F 89.5 °F 75.2 °F 79% 30.04 in 10.0 mi Variable 4.6 mph - N/A   Overcast
2:56 PM 82.9 °F 91.8 °F 77.0 °F 82% 30.03 in 10.0 mi SSE 6.9 mph - N/A   Mostly Cloudy
3:56 PM 78.1 °F - 77.0 °F 96% 30.05 in 8.0 mi South 8.1 mph - 0.03 in Rain Rain
4:35 PM 77.0 °F - 75.2 °F 94% 30.02 in 8.0 mi SE 6.9 mph - 0.05 in Rain , Thunderstorm Light Rain
4:48 PM 77.0 °F - 75.2 °F 94% 30.03 in 6.0 mi South 5.8 mph - 0.08 in Rain Rain
4:56 PM 77.0 °F - 75.0 °F 94% 30.04 in 7.0 mi SSW 6.9 mph - 0.10 in Rain Rain
5:31 PM 75.2 °F - 75.2 °F 100% 30.02 in 7.0 mi ESE 4.6 mph - 0.06 in Rain Light Rain
5:41 PM 75.2 °F - 75.2 °F 100% 30.02 in 10.0 mi SE 3.5 mph - 0.06 in Rain , Thunderstorm Light Rain
5:54 PM 75.2 °F - 75.2 °F 100% 30.00 in 10.0 mi ENE 6.9 mph - 0.06 in Rain , Thunderstorm Light Rain
5:56 PM 75.9 °F - 75.0 °F 97% 30.00 in 10.0 mi ENE 6.9 mph - 0.06 in Rain , Thunderstorm Light Rain
6:10 PM 75.2 °F - 75.2 °F 100% 29.98 in 4.0 mi East 6.9 mph - 0.03 in Rain Rain
7:08 PM 75.2 °F - 75.2 °F 100% 30.01 in 10.0 mi SSW 4.6 mph - N/A   Overcast
7:56 PM 75.9 °F - 75.0 °F 97% 30.03 in 10.0 mi Calm Calm - 0.00 in Rain Light Rain
8:56 PM 75.9 °F - 75.0 °F 97% 30.02 in 10.0 mi Calm Calm - 0.00 in   Mostly Cloudy
9:10 PM 75.2 °F - 75.2 °F 100% 30.02 in 10.0 mi Calm Calm - N/A   Partly Cloudy
9:56 PM 75.0 °F - 73.9 °F 96% 30.01 in 10.0 mi Calm Calm - N/A   Clear
10:56 PM 75.0 °F - 73.9 °F 96% 30.01 in 10.0 mi Calm Calm - N/A   Clear
11:56 PM 75.9 °F - 75.0 °F 97% 30.02 in 10.0 mi Calm Calm - 0.01 in   Partly Cloudy